#timestamp,LO_Frequency,Hit,StdDev 
1578368695.2,286047035.1,P
1578368715.1,286047037.7,P
1578368716.0,286047037.7,P
1578368735.8,286047039.4,Y
1578368755.6,286047001.9,P
1578368775.5,286047001.7,N
1578368795.3,286047001.5,N
1578368815.2,286047005.4,N
1578368835.9,286047006.0,N
1578368855.7,286047002.9,N
1578368875.6,286047003.2,N
1578368895.4,286047004.1,N
1578368915.2,286047003.4,N
1578368935.1,286047003.0,N
1578368936.0,286047003.0,N
1578368955.8,286047003.2,N
1578368975.7,286047003.1,N
1578368995.5,286047003.4,N
1578369015.3,286047004.7,N
1578369035.2,286047004.6,N
1578369055.0,286047005.3,N
1578369055.9,286047005.3,N
1578369075.8,286047005.3,N
1578369095.6,286047003.3,N
1578369115.4,286047005.9,N
1578369135.3,286047005.5,N
1578369155.1,286047005.8,N
1578369175.8,286047005.3,N
1578369195.7,286047008.6,N
1578369215.5,286047010.3,N
1578369235.4,286047012.4,N
1578369255.2,286047011.2,N
1578369275.0,286047012.3,N
1578369275.9,286047012.3,N
1578369295.8,286047009.4,N
1578369315.6,286047013.9,Y
1578369335.5,286047008.8,P
1578369355.3,286047005.0,P
1578369375.1,286047003.5,N
1578369395.9,286047003.4,N
1578369415.7,286047007.1,Y
1578369435.5,286047003.9,P
1578369455.4,286047005.6,P
1578369475.2,286047003.5,P
1578369495.1,286047001.3,N
1578369496.0,286047001.3,N
1578369515.8,286047002.5,N
1578369535.6,286047002.6,N
1578369555.5,286047001.6,N
1578369575.3,286047002.1,N
1578369595.1,286047000.7,N
